Content
SEND FEEDBACK

Daily
Averages
Monthly
Summary
United States of America

PUT IN BAY, OHIO


Home > North America > United States > Ohio
Elevation: 561 feet     Latitude: 41 39N     Longitude: 082 48W

WEATHER
 
SELECT A DAY
Number of Records: 125,217;   Date Range: 12/10/00 - 11/21/14
 
SHARE

PRINT THIS DATA

[ ← Previous Day ]
WEATHER ALMANAC - JUNE 29, 2013
[ Next Day → ]
[ °C ]   °F
We're sorry. There is no daily almanac available for Put In Bay, Ohio on June 29, 2013.
WEATHER BY HOUR - JUNE 29, 2013
[ °C ]   °F
Local TimeTemperatureDewpointHumidityBarometerVisibilityWind DirectionWind SpeedGust SpeedPrecipitationEventsConditions
1:00 AM64.4 °F62.6 °F94 %29.52 inNorth (350°)1.2 mph
2:00 AM64.0 °F62.0 °F93 %29.52 inNW (310°)2.3 mph
2:00 AM64.0 °F62.4 °F94 %29.52 inNW (310°)2.3 mph
3:00 AM63.7 °F62.1 °F94 %29.52 inNNW (330°)1.2 mph
4:00 AM63.7 °F62.1 °F94 %29.51 inWNW (300°)1.2 mph
5:00 AM63.9 °F62.2 °F94 %29.52 inNW (310°)2.3 mph
6:00 AM64.2 °F62.4 °F94 %29.54 inNW (310°)2.3 mph0.01 in
7:00 AM64.2 °F62.6 °F94 %29.55 inNW (310°)1.2 mph
8:00 AM65.0 °F63.0 °F91 %29.55 inNNW (340°)1.2 mph
8:00 AM64.9 °F63.0 °F93 %29.55 inNNW (340°)1.2 mph
9:00 AM66.2 °F63.3 °F90 %29.56 inNNE (20°)3.5 mph
10:00 AM67.3 °F63.1 °F87 %29.57 inNorth (350°)2.3 mph
11:00 AM69.4 °F62.8 °F79 %29.57 inNNE (20°)4.6 mph
12:00 PM69.4 °F62.6 °F79 %29.58 inNorth (10°)4.6 mph
1:00 PM70.3 °F62.1 °F75 %29.58 inNE (40°)4.6 mph
2:00 PM72.0 °F63.0 °F66 %29.58 inENE (60°)4.6 mph
2:00 PM71.8 °F63.0 °F74 %29.58 inENE (60°)4.6 mph
3:00 PM72.7 °F62.1 °F69 %29.58 inNE (50°)5.8 mph
4:00 PM73.2 °F60.8 °F65 %29.60 inNE (40°)8.1 mph
5:00 PM73.2 °F60.4 °F64 %29.61 inNE (50°)6.9 mph
6:00 PM71.1 °F59.9 °F68 %29.61 inENE (60°)9.2 mph
7:00 PM70.7 °F59.2 °F67 %29.63 inNE (40°)5.8 mph
8:00 PM69.0 °F59.0 °F62 %29.65 inNE (40°)5.8 mph
8:00 PM69.1 °F58.8 °F70 %29.65 inNE (40°)5.8 mph
9:00 PM67.1 °F58.5 °F74 %29.67 inNE (40°)5.8 mph
10:00 PM66.0 °F57.4 °F74 %29.69 inNE (40°)3.5 mph
11:00 PM64.6 °F57.9 °F79 %29.69 inNE (40°)3.5 mph
Hourly data recorded from CXHA, located miles away from Put In Bay, Ohio







STORIES FROM OUR PARTNERS